Regional Weather Roundup
Issued by NWS Sterling, VA

Home | Current Version | Previous Version | Text Only | Print | Product List | Glossary On
Versions: 1 2 3 4 5 6 7 8 9 10 11 12 13 14 15 16 17 18 19 20 21 22 23 24 25 26 27 28 29 30 31 32 33 34 35 36 37 38 39 40 41 42 43 44 45 46 47 48 49 50
000
ASUS41 KLWX 310010
RWRLWX

REGIONAL WEATHER ROUNDUP
NATIONAL WEATHER SERVICE BALTIMORE MD/WASHINGTON DC
800 PM EDT MON MAR 30 2015

Note: "FAIR" indicates few or no clouds below 12,000 feet
with no significant weather and/or obstructions to visibility.
 TC=TEMPERATURE CELSIUS

 * =Non NWS site. Station does not report precipitation (e.g. rain,
    snow, etc.), thunder, or fog.

DCZ001-MDZ009-015-VAZ040>042-051-053>054-310100-
WASHINGTON METRO

CITY           SKY/WX    TMP DP  RH WIND       PRES   REMARKS
WASHINGTON NAT PTCLDY    60  21  22 NW10      29.91R
DULLES         PTCLDY    54  21  27 NW13      29.92R
ANDREWS AFB    CLEAR     56  22  26 NW14      29.89R
FT BELVOIR     CLEAR     56  22  26 NW10      29.91R
QUANTICO       CLEAR     58  20  22 NW10      29.91R
COLLEGE PARK*  CLEAR     57  21  24 NW10      29.90R
LEESBURG*      CLEAR     54  28  37 NW13      29.93R
GAITHERSBURG*  CLEAR     54  19  26 NW9G20    29.95R

$$

MDZ006>007-011-014-310100-
BALTIMORE METRO

CITY           SKY/WX    TMP DP  RH WIND       PRES   REMARKS
BWI AIRPORT    PTCLDY    54  21  27 NW9       29.89R
MD SCIENCE CTR   N/A     56  21  25 MISG      29.88R
ANNAPOLIS      CLEAR     55  25  31 NW8       29.88R

$$

MDZ012-015-019>023-310100-
MARYLAND EASTERN SHORE

CITY           SKY/WX    TMP DP  RH WIND       PRES   REMARKS
OCEAN CITY     CLEAR     48  35  60 CALM      29.88R
SALISBURY      CLEAR     48  31  51 CALM      29.87R
BAY BRIDGE AP*   N/A     52  27  37 NW7       29.89R
CAMBRIDGE*     CLEAR     54  28  37 NW6       29.88R
EASTON*        PTCLDY    54  28  37 NW5       29.92R

$$

MDZ017>025-310100-
SOUTHERN MARYLAND

CITY           SKY/WX    TMP DP  RH WIND       PRES   REMARKS
PATUXENT RIVER PTCLDY    53  26  35 NW6       29.88R
ST INIGOES     CLEAR     58  19  22 VRB5      29.88R
LEONARDTOWN*   CLEAR     55  21  26 W5        29.90R

$$

MDZ003>005-310100-
NORTH CENTRAL MARYLAND

CITY           SKY/WX    TMP DP  RH WIND       PRES   REMARKS
FREDERICK*     NOT AVBL
HAGERSTOWN APT CLOUDY    52  20  28 W20G25    29.91R
WESTMINSTER*   CLEAR     52  16  24 NW12G20   29.91R

$$

MDZ501>502-310100-
WESTERN MARYLAND

CITY           SKY/WX    TMP DP  RH WIND       PRES   REMARKS
OAKLAND*       MOCLDY    41  23  48 W14G21    29.92S
CUMBERLAND*    NOT AVBL

$$

VAZ025>031-310100-
SHENANDOAH VALLEY

CITY           SKY/WX    TMP DP  RH WIND       PRES   REMARKS
WINCHESTER*    MOCLDY    54   9  16 NW16G23   29.93R
FRONT ROYAL*   FAIR      54  21  28 W10G22    29.93R
LURAY*         FAIR      55  27  33 NW8G17    29.93R
NEW MARKET*    FAIR      53  20  27 W5        29.94R
STAUNTON*      CLEAR     52  19  26 W6        29.97R
WAYNESBORO*    FAIR      51  19  27 NW5       29.95R

$$

WVZ021-048>050-054>055-310100-
EASTERN WEST VIRGINIA PANHANDLE

CITY           SKY/WX    TMP DP  RH WIND       PRES   REMARKS
MARTINSBURG    MOCLDY    54  19  25 W14G21    29.93R
PETERSBURG*    PTCLDY    52  17  24 NW13G18   29.96R

$$

VAZ036>039-050-310100-
CENTRAL FOOTHILLS

CITY           SKY/WX    TMP DP  RH WIND       PRES   REMARKS
CHARLOTTESVILL CLEAR     56  18  22 NW7       29.93R
CULPEPER*      CLEAR     59  19  21 NW8G17    29.93R
ORANGE*        CLEAR     57  21  24 W5        29.94R
GORDONSVILLE*  FAIR      57  20  23 W3        29.92R
WARRENTON*     FAIR      57  31  37 W14G21    29.91R

$$

VAZ055>057-310100-
NORTH AND CENTRAL PIEDMONT

CITY           SKY/WX    TMP DP  RH WIND       PRES   REMARKS
FREDERICKSBRG* CLEAR     60  22  23 W7        29.91R
STAFFORD*      CLEAR     56  16  20 NW9G17    29.95R

$$

NCZ024-NYZ072-PAZ021-071-VAZ022-071-310100-
OTHER REGIONAL OBSERVATIONS

CITY           SKY/WX    TMP DP  RH WIND       PRES   REMARKS
NEW YORK CITY  PTCLDY    51  21  30 W7G17     29.82R
PHILADELPHIA   PTCLDY    54  22  28 NW15      29.86R
PITTSBURGH     MOCLDY    49  23  36 W12G20    29.93S
ROANOKE        CLEAR     56  18  22 NW13      29.99R
RICHMOND       CLEAR     61  22  22 W8        29.90R
RALEIGH        PTCLDY    62  32  32 W6        29.97R

$$

ANZ530>537-310100-
MARINE OBSERVATIONS

STATION/POSITION TIME  TEMP    WIND        PRES
                       AIR SEA DIR/SP/G
                 (UTC) (F)     (DEG/KT/KT) (MB)
THOMAS PT LIGHT  0000                        N/A
BALT KEY BRIDGE  2300   56     290/ 16/ 19 1010.8R
COVE POINT       2300   59     340/ 13/ 15 1011.0R
LEWISETTA        2300   59 44              1011.1R
SOLOMONS ISLAND  2306      43                N/A
PINEY POINT      2306          340/ 12/ 12   N/A

$$




USA.gov is the U.S. government's official web portal to all federal, state and local government web resources and services.